Miami, FL

3:35 AM EST on December 06, 2019 (GMT -0500)
Miami International

Weather History for KMIA - October, 2019

Change the Weather History Date:

Sunday, October 6, 2019

  Actual Average Record
Temperature  
Mean Temperature 83 °F 81 °F  
Max Temperature 89 °F 88 °F 93 °F (1907)
Min Temperature 77 °F 75 °F 64 °F (1942)
Degree Days  
Heating Degree Days 0 0  
Month to date heating degree days 0 0  
Since 1 July heating degree days 0 0  
Cooling Degree Days 18 16  
Month to date cooling degree days 111 101  
Year to date cooling degree days 4202 3713  
Growing Degree Days 33 (Base 50)    
Moisture  
Dew Point 71 °F    
Average Humidity 69    
Maximum Humidity 85    
Minimum Humidity 53    
Precipitation  
Precipitation 0.12 in 0.27 in 3.70 in (1909)
Month to date precipitation 0.62 1.64  
Year to date precipitation 55.79 51.90  
Snow  
Snow 0.00 in - - ()
Month to date snowfall 0.0  
Since 1 July snowfall 0.0  
Since 1 September snowfall 0.0  
Snow Depth 0.00 in    
Sea Level Pressure  
Sea Level Pressure 29.92 in    
Wind  
Wind Speed 9 mph (NE)    
Max Wind Speed 20 mph    
Max Gust Speed 26 mph    
Visibility 10 miles    
Events Rain    
T = Trace of Precipitation, MM = Missing Value Source: NWS Daily Summary

Daily Weather History Graph

Daily Weather History Graph

Search for Another Location

Airport or City:

Astronomy

Oct. 06, 2019 Rise Set
Actual Time 7:15 AM EDT 7:02 PM EDT
Civil Twilight 6:52 AM EDT 7:25 PM EDT
Nautical Twilight 6:25 AM EDT 7:52 PM EDT
Astronomical Twilight 5:59 AM EDT 8:18 PM EDT
Moon 2:57 PM EDT 12:56 AM EDT
Length of Visible Light 12h 33m
Length of Day
11h 47m
First Quarter, 59% of the Moon is Illuminated
Oct 6
First Quarter
Oct 13
Full
Oct 21
Last Quarter
Oct 27
New
Nov 4
First Quarter

Hourly Weather History & Observations

Time (EDT) Temp. Heat Index Dew Point Humidity Pressure Visibility Wind Dir Wind Speed Gust Speed Precip Events Conditions
12:53 AM 84.0 °F 89.0 °F 71.1 °F 65% 29.93 in 10.0 mi ENE 12.7 mph 20.7 mph N/A   Scattered Clouds
1:53 AM 82.0 °F 86.7 °F 72.0 °F 71% 29.92 in 10.0 mi Variable 6.9 mph - N/A   Scattered Clouds
2:53 AM 81.0 °F 85.2 °F 72.0 °F 74% 29.91 in 10.0 mi NE 8.1 mph - N/A   Scattered Clouds
3:53 AM 80.1 °F 83.6 °F 71.1 °F 74% 29.90 in 10.0 mi ENE 6.9 mph - 0.00 in   Scattered Clouds
4:53 AM 80.1 °F 83.8 °F 72.0 °F 76% 29.90 in 10.0 mi North 5.8 mph - N/A   Scattered Clouds
5:53 AM 77.0 °F - 72.0 °F 84% 29.91 in 10.0 mi NNE 6.9 mph - 0.01 in   Mostly Cloudy
6:53 AM 78.1 °F - 73.0 °F 84% 29.93 in 10.0 mi NNE 5.8 mph - 0.02 in   Mostly Cloudy
7:53 AM 79.0 °F - 73.0 °F 82% 29.94 in 10.0 mi NNE 5.8 mph - 0.00 in   Mostly Cloudy
8:53 AM 82.0 °F 86.7 °F 72.0 °F 71% 29.95 in 10.0 mi ENE 11.5 mph 18.4 mph N/A   Mostly Cloudy
9:53 AM 84.0 °F 89.0 °F 71.1 °F 65% 29.96 in 10.0 mi ENE 15.0 mph 20.7 mph N/A   Mostly Cloudy
10:53 AM 84.9 °F 89.4 °F 70.0 °F 61% 29.97 in 10.0 mi NE 15.0 mph 24.2 mph N/A   Mostly Cloudy
11:53 AM 87.1 °F 91.3 °F 69.1 °F 55% 29.96 in 10.0 mi NE 13.8 mph 20.7 mph N/A   Mostly Cloudy
12:53 PM 87.1 °F 90.6 °F 68.0 °F 53% 29.95 in 10.0 mi ENE 15.0 mph 23.0 mph N/A   Mostly Cloudy
1:53 PM 88.0 °F 92.1 °F 69.1 °F 53% 29.93 in 10.0 mi ENE 13.8 mph 20.7 mph N/A   Mostly Cloudy
2:53 PM 87.1 °F 91.3 °F 69.1 °F 55% 29.91 in 10.0 mi ENE 15.0 mph 21.9 mph N/A   Scattered Clouds
3:53 PM 82.9 °F 88.8 °F 73.0 °F 72% 29.90 in 8.0 mi NE 8.1 mph 21.9 mph 0.01 in Rain Light Rain
4:53 PM 84.9 °F 90.1 °F 71.1 °F 63% 29.89 in 10.0 mi ENE 12.7 mph 21.9 mph 0.00 in   Mostly Cloudy
5:53 PM 84.0 °F 87.0 °F 68.0 °F 58% 29.88 in 10.0 mi NE 15.0 mph - N/A   Scattered Clouds
6:53 PM 82.0 °F 86.3 °F 71.1 °F 69% 29.89 in 10.0 mi NE 10.4 mph - N/A   Scattered Clouds
7:53 PM 81.0 °F 84.4 °F 70.0 °F 69% 29.90 in 10.0 mi NNE 9.2 mph - N/A   Scattered Clouds
8:53 PM 80.1 °F 83.6 °F 71.1 °F 74% 29.91 in 10.0 mi NE 5.8 mph - 0.00 in   Mostly Cloudy
9:53 PM 80.1 °F 83.8 °F 72.0 °F 76% 29.91 in 10.0 mi North 5.8 mph - N/A   Mostly Cloudy
10:53 PM 79.0 °F - 73.9 °F 84% 29.91 in 7.0 mi NE 8.1 mph 19.6 mph 0.06 in Rain Light Rain
11:53 PM 78.1 °F - 73.0 °F 84% 29.90 in 10.0 mi NNE 5.8 mph - 0.01 in   Mostly Cloudy